Location: Camaret
(48.2753°N, 4.5961°W)
Time: 01:20:00
(UTC+00:00)

Cosmos 2297 Rocket - Pass Details

Date: 29 October 2020
Orbit: 838 x 845 km, 71.0° (Epoch: 26 November)

Event Time Altitude Azimuth Distance (km) Brightness Sun altitude
Rises 19:13:39 0° 323° (NW) 3,414 5.9 -22.1°
Reaches altitude 10° 19:16:28 10° 311° (NW) 2,474 5.3 -22.6°
Maximum altitude 19:21:02 26° 257° (WSW) 1,620 4.3 -23.3°
Drops below altitude 10° 19:25:35 10° 203° (SSW) 2,458 4.8 -24.1°
Sets 19:28:23 0° 191° (S) 3,387 5.4 -24.6°
